Torna al catalogo

QIANFAN-145

AttivoComunicazioniPO
NORAD 69104·PAYLOAD·🇨🇳 China

Lanciato May 17, 2026 da Wenchang Space Launch Site

Loading…

Prossimi Passaggi (prossime 24 ore)

TLE

AggiornatoSource: Space-Track

Epoca: Sep 14, 2026, 14:28 UTC

1 69104U 26108A   26257.60330106  .00000097  00000-0  13133-3 0  9998
2 69104  89.0189  13.1188 0001614  99.8012 260.3321 13.51033406 16516

Traccia QIANFAN-145 in tempo reale con AllMySat

Download on the App Store